Temperature
20 18 18 18 18 19 19 19 18 19 19 18 17 17 17 17 17 17 17 18 18 19 19 19 19 18 18 18 18 18 17 17 17 17 16 16 16 16 16 16 16 16 16 15
18 19 19 20 19 19 19 19 19 19 19 18 17 17 17 17 17 17 17 18 18 18 18 18 18 18 18 18 18 17 17 17 17 16 16 16 16 16 16 16 15 15 15 15
19 20 20 20 20 20 19 19 19 19 18 18 18 17 17 17 17 17 17 18 18 18 18 18 18 18 18 18 17 17 17 17 16 16 16 16 16 15 15 15 15 15 15 15
19 20 20 20 20 19 19 20 19 19 18 17 18 16 17 16 16 16 17 17 18 18 18 18 18 18 18 18 17 17 17 16 16 16 16 16 16 16 15 15 15 15 15 15
19 20 20 20 20 20 19 19 19 18 17 16 17 16 16 16 16 16 16 17 17 18 18 18 18 18 18 17 17 17 17 16 16 16 16 16 15 15 15 15 15 15 15 15
19 20 20 20 20 19 19 18 17 15 15 16 17 16 16 15 16 16 16 17 17 18 18 18 18 17 17 17 17 16 16 16 16 16 16 15 15 15 15 15 15 15 14 14
19 19 19 20 20 19 18 17 16 16 15 16 16 16 16 16 16 16 16 17 17 18 18 18 17 17 17 17 16 16 16 16 16 16 15 15 15 15 15 14 14 14 14 14
18 18 19 19 20 19 18 17 16 17 16 15 16 16 16 16 17 17 17 17 17 17 17 17 17 17 17 16 16 16 16 16 15 15 15 15 15 15 14 14 14 14 14 14
17 18 19 19 19 19 18 16 16 15 15 15 15 15 16 16 16 16 16 16 17 17 17 17 17 17 16 16 16 16 15 15 15 15 15 15 15 14 14 14 14 14 14 14
17 18 18 18 19 18 18 15 14 15 15 15 16 16 15 16 16 15 15 15 16 16 17 16 16 16 16 16 16 15 15 15 15 15 15 15 14 14 14 14 14 14 14 14
17 17 17 18 18 18 17 16 14 13 14 15 15 15 16 16 15 15 15 16 16 16 16 16 16 16 16 16 15 15 15 15 15 15 14 14 14 14 14 14 14 14 13 13
15 14 15 17 17 17 17 17 15 15 15 13 14 14 16 15 15 15 15 16 16 16 16 16 16 15 15 15 15 15 14 14 14 14 14 14 14 14 14 14 14 13 13 13
15 15 15 16 16 17 17 16 15 14 13 12 13 15 15 15 15 15 15 16 16 16 16 16 15 15 15 15 14 14 14 14 14 14 14 14 14 14 13 13 13 13 13 13
15 14 15 16 16 16 16 16 15 14 13 13 13 14 15 15 14 14 15 15 15 15 15 15 15 15 15 14 14 14 14 14 13 13 13 13 14 13 13 13 13 13 13 13
14 14 15 15 15 16 16 16 15 15 14 14 14 14 15 14 14 14 15 15 15 15 15 15 15 14 14 14 14 14 13 13 13 13 13 13 13 13 13 13 13 13 13 13
13 14 15 15 15 15 15 15 15 15 14 14 14 14 14 14 15 14 14 14 14 14 14 14 14 14 14 14 14 13 13 13 13 13 13 13 13 13 13 13 13 13 13 12
12 13 13 13 14 15 14 15 15 14 14 14 14 14 14 13 14 14 14 14 14 14 14 14 14 14 13 13 13 13 13 13 13 12 12 12 12 12 12 12 12 12 12 12
12 12 11 12 14 15 15 15 15 14 14 13 13 13 13 14 14 15 15 15 14 14 14 14 14 13 13 13 13 13 13 13 12 12 12 12 12 12 12 12 12 12 12 12
11 11 11 11 12 13 14 14 14 14 14 13 13 13 13 14 14 14 15 15 14 14 14 14 14 13 13 13 13 12 12 12 12 12 12 12 12 12 12 12 12 11 11 11
10 10 10 10 13 13 14 15 15 14 14 14 13 13 13 13 11 12 15 14 14 14 14 14 13 13 13 13 12 12 12 12 12 11 11 11 11 11 11 11 11 11 11 11
11 10 10 10 11 12 13 14 15 14 13 14 14 13 13 12 13 14 14 14 14 14 14 13 13 13 13 12 12 12 12 11 11 11 11 11 11 11 11 11 11 11 10 10
11 10 10 9 11 12 13 13 13 13 14 14 14 14 13 14 14 14 14 14 14 13 13 13 13 12 12 12 12 12 12 11 11 11 11 11 11 11 10 10 10 10 10 10
10 11 10 10 12 12 13 13 14 14 14 14 14 14 14 13 13 13 13 13 13 13 13 13 12 12 12 12 12 12 11 11 11 11 10 10 10 10 10 10 10 10 10 10
9 9 9 9 10 12 13 14 14 14 14 14 14 13 13 13 13 13 13 13 13 12 12 12 12 12 12 11 11 11 11 11 10 10 10 10 10 10 10 10 10 9 9 9
9 8 9 9 10 11 13 14 14 14 14 13 13 13 13 13 12 12 12 12 12 12 12 12 11 11 11 11 11 11 11 10 10 10 10 10 10 10 10 9 9 9 9 9
8 9 9 10 11 11 13 14 13 13 13 13 13 12 12 12 12 12 12 12 11 11 11 11 11 11 11 11 11 10 10 10 10 10 10 10 9 9 9 9 9 9 9 9
Wind_Speed
4 4 1 5 5 4 3 2 2 4 1 2 2 3 4 2 2 2 3 3 4 5 3 1 1 2 3 2 3 3 3 3 3 2 2 2 1 1 1 2 2 3 4 5
5 2 5 3 3 2 2 1 2 3 1 2 1 3 3 2 3 4 5 5 5 3 1 1 2 2 2 2 2 2 2 3 3 2 2 2 2 1 1 1 2 2 3 4
3 4 1 2 1 1 1 4 3 2 2 3 2 4 3 2 2 2 2 2 2 4 4 3 2 2 2 2 2 3 2 2 3 3 3 3 3 2 2 1 1 1 2 3
2 2 1 2 2 3 3 4 3 2 2 2 1 2 5 3 3 2 2 2 2 2 2 2 2 2 2 3 2 2 2 2 3 4 4 4 3 2 1 1 0 1 2 3
3 1 1 1 3 3 3 1 2 2 3 1 2 1 6 2 3 5 4 3 2 2 2 3 3 3 2 2 2 2 2 2 2 3 4 4 2 2 1 1 2 1 1 2
3 2 2 3 1 2 3 5 6 5 4 1 2 2 5 3 5 5 4 3 2 2 1 1 1 1 0 0 1 1 2 1 1 2 3 4 4 3 2 1 1 1 1 1
5 4 3 1 2 3 5 6 4 5 4 4 2 2 6 5 4 5 5 4 3 2 1 1 1 1 1 0 1 1 2 1 1 2 2 3 4 4 4 3 3 2 1 1
1 5 3 1 3 3 2 7 5 3 3 4 3 3 6 4 3 2 3 2 2 2 1 1 2 2 1 1 1 1 2 1 1 2 2 2 2 2 2 3 3 2 2 2
3 4 4 1 0 6 4 3 5 6 2 1 4 5 6 2 2 1 1 2 2 2 2 2 1 1 1 1 1 2 2 2 2 2 2 2 3 3 3 3 2 2 2 1
5 3 4 3 4 4 5 7 5 4 3 2 5 4 4 5 4 3 2 3 3 3 2 2 1 1 1 1 1 1 2 2 2 3 3 2 3 3 3 3 3 2 2 2
3 3 4 3 1 2 3 4 5 4 4 4 3 6 4 6 5 5 5 4 3 3 3 2 2 1 1 1 2 1 1 1 1 1 2 2 2 2 3 2 2 2 2 2
3 4 1 4 3 1 3 5 6 4 3 4 3 6 4 3 4 3 4 3 3 3 2 2 1 1 1 1 1 1 1 0 0 1 1 1 1 1 2 2 2 2 2 2
4 5 2 5 4 2 1 2 4 5 4 5 4 6 3 3 3 2 2 2 2 2 1 1 1 1 1 1 1 1 1 1 1 0 1 1 1 1 2 2 2 2 3 2
5 4 6 7 6 3 2 2 4 5 4 5 7 7 7 5 4 4 3 2 2 1 1 1 1 1 1 1 1 1 2 1 1 1 1 1 2 2 2 2 2 2 2 2
4 3 3 4 4 3 3 4 4 6 7 8 7 7 8 6 5 4 2 1 1 1 1 1 2 2 2 1 1 1 2 1 1 1 1 2 2 1 2 2 2 1 2 2
3 3 1 2 1 1 3 5 5 5 5 6 5 6 6 3 1 1 2 2 3 3 3 2 2 2 2 2 2 2 2 1 1 2 1 1 1 1 1 2 2 1 1 1
2 4 2 3 3 3 4 5 6 4 4 6 6 7 3 1 2 3 4 4 5 4 4 3 3 3 3 3 3 3 3 1 1 2 1 1 1 1 1 1 1 1 1 1
5 5 3 1 1 5 6 2 3 3 3 3 4 3 3 4 3 3 3 4 5 4 4 4 4 3 3 2 2 2 1 1 1 1 1 1 1 1 1 1 1 2 2 2
5 7 4 3 2 6 5 3 4 4 3 3 3 3 2 0 2 3 3 3 5 5 5 4 4 4 3 3 2 1 1 1 1 1 1 1 1 1 1 1 2 2 2 2
4 4 5 4 3 6 6 3 2 3 3 3 3 3 1 3 0 5 4 3 4 3 3 3 2 2 2 2 2 2 2 1 2 3 3 2 2 2 2 2 2 1 2 2
3 3 4 5 5 7 6 3 3 3 6 3 3 4 4 5 5 5 3 3 3 2 2 2 2 2 2 2 2 2 2 3 4 2 2 1 2 2 2 2 2 1 1 1
6 5 5 5 4 8 3 4 5 6 2 1 2 3 4 4 3 3 2 2 2 1 1 1 2 2 1 2 2 2 3 3 2 2 2 2 2 2 1 1 1 1 1 1
6 7 6 8 7 4 2 3 2 2 2 2 2 3 3 3 3 3 3 2 2 2 1 1 2 2 2 2 3 4 4 2 2 2 2 2 2 2 2 2 2 1 1 2
4 2 3 3 6 5 4 2 2 1 2 3 3 3 2 3 3 3 3 2 2 2 2 1 1 2 3 2 2 3 3 3 3 2 2 2 2 2 1 1 2 2 2 3
5 4 3 4 6 4 5 4 3 2 1 1 1 2 3 3 3 3 3 3 2 2 2 1 2 3 4 3 3 3 2 2 2 2 2 2 2 2 2 2 3 3 4 5
6 7 7 8 7 6 6 5 3 3 3 3 2 2 2 3 4 3 3 2 2 2 2 2 3 3 3 3 3 2 2 2 3 2 2 2 2 2 2 2 3 3 4 5
Wind_Direction
35 70 191 223 198 194 175 178 241 262 245 149 207 263 285 259 193 200 217 219 226 237 255 228 174 137 127 117 131 141 131 129 122 109 112 106 94 62 51 59 84 109 125 129
41 294 244 212 175 162 152 165 261 297 360 159 213 282 289 232 222 218 216 225 228 238 252 193 145 128 141 151 158 151 158 155 152 140 129 121 116 107 95 43 59 92 122 132
185 252 222 134 134 149 210 194 216 234 17 45 68 334 314 300 272 255 244 235 228 216 216 198 168 164 154 172 186 187 188 173 158 130 106 88 72 61 50 37 22 34 117 134
247 275 128 131 191 164 246 232 204 174 103 309 86 284 291 288 297 285 281 267 250 241 207 188 179 187 200 210 196 183 181 173 160 147 144 142 144 153 192 177 155 40 82 112
275 243 144 199 236 186 218 44 104 104 132 48 26 155 289 328 283 273 268 253 242 234 190 188 196 198 200 193 186 181 155 156 157 159 162 154 149 163 155 121 110 76 47 87
267 275 203 209 217 134 123 67 56 50 72 23 271 176 281 258 240 257 251 245 230 217 170 169 159 120 104 118 153 149 154 154 147 163 166 164 165 161 152 154 143 109 60 52
335 328 319 137 77 35 73 81 33 8 14 267 281 194 253 266 243 227 226 229 217 189 166 162 151 166 198 236 190 165 165 198 182 163 183 182 179 173 182 186 175 161 146 177
6 302 301 332 164 168 135 130 147 195 233 282 324 247 261 281 281 241 207 187 168 168 184 191 204 212 221 221 183 160 177 207 197 179 190 178 166 169 187 187 174 179 190 200
183 260 302 318 137 133 126 132 155 137 153 274 287 292 303 325 341 344 133 143 188 201 199 192 198 199 216 198 202 175 163 180 189 190 183 176 172 175 183 184 173 175 183 179
164 233 299 312 64 46 124 139 103 116 145 270 294 280 260 268 269 280 244 221 222 211 205 200 190 179 175 174 162 136 147 171 195 192 189 182 186 190 185 170 175 177 178 164
136 163 307 9 136 189 94 102 108 118 148 163 263 276 238 236 237 235 242 235 221 219 220 210 205 175 135 100 104 112 118 123 153 184 187 178 191 187 172 172 191 194 189 180
122 122 249 271 273 204 161 160 145 152 210 175 187 267 293 262 258 233 248 252 235 227 218 203 180 140 105 106 113 125 126 106 234 195 167 169 164 164 173 193 207 199 203 202
133 112 58 348 343 6 106 139 140 128 125 160 181 261 313 355 347 290 257 248 234 229 207 149 144 166 170 174 194 182 203 230 298 149 153 161 180 193 215 221 210 201 204 206
120 124 168 203 225 218 245 212 157 140 165 206 219 246 289 302 305 302 285 248 225 211 196 184 202 222 226 214 205 209 245 232 217 169 164 220 244 236 223 219 209 203 200 204
104 155 207 234 243 212 231 239 204 192 195 202 230 234 259 261 255 262 260 233 200 210 233 232 228 233 234 231 234 235 258 258 208 177 194 239 253 244 216 203 209 197 187 204
84 151 159 285 282 216 254 254 230 220 210 215 232 258 263 265 223 254 253 220 223 241 247 246 234 239 238 235 236 234 249 241 177 174 220 248 247 220 201 204 206 193 209 208
130 138 137 251 299 354 273 241 212 207 210 193 214 239 264 266 248 245 242 228 230 240 243 235 229 231 228 232 229 229 235 214 178 176 214 238 221 222 222 209 185 199 212 200
149 135 140 181 38 242 245 253 190 190 237 218 221 247 233 237 258 260 238 224 238 246 243 236 230 233 235 232 236 234 227 186 164 168 228 245 211 223 213 181 210 219 208 205
163 146 137 142 210 273 287 255 185 184 255 225 216 257 278 304 15 320 272 235 239 237 238 235 227 222 214 219 221 185 184 184 171 214 246 256 215 206 185 214 235 224 204 220
83 114 131 144 181 236 248 256 205 128 267 251 207 227 216 105 60 276 284 272 265 252 246 241 227 210 203 226 196 172 196 196 222 236 240 242 224 202 205 227 232 223 218 234
106 101 150 175 214 255 254 264 122 163 245 251 204 206 183 193 219 251 276 274 263 257 256 238 204 204 221 214 182 186 197 218 232 233 230 230 228 220 217 220 222 220 226 244
178 171 185 164 200 251 239 141 176 217 239 222 216 208 205 229 260 272 262 269 271 282 261 226 219 246 252 206 187 205 225 230 218 206 212 236 240 236 234 208 230 220 204 226
199 193 188 190 213 248 214 203 235 168 196 226 219 236 216 234 258 267 266 269 275 264 256 246 233 249 272 234 204 220 238 218 195 199 222 241 242 243 230 218 224 236 226 232
252 175 161 236 261 264 260 269 281 227 227 248 238 233 210 235 249 258 267 271 280 283 266 251 236 252 276 271 247 238 229 202 185 202 227 228 226 246 249 242 222 218 229 239
222 174 186 241 268 294 282 248 245 273 277 294 283 248 227 230 245 245 252 258 261 280 286 253 234 246 261 272 269 263 224 190 195 211 228 231 230 231 244 252 240 232 235 228
206 189 191 228 224 210 248 249 235 233 244 243 254 289 281 233 239 240 243 252 257 265 276 270 263 257 267 271 273 272 232 198 198 222 235 237 237 239 239 254 283 274 255 257
Height
1518 1523 1528 1526 1525 1526 1528 1532 1534 1531 1525 1528 1531 1530 1527 1525 1525 1526 1526 1527 1528 1529 1530 1532 1533 1534 1535 1536 1536 1537 1537 1538 1538 1539 1539 1539 1539 1540 1540 1541 1542 1542 1542 1542
1524 1526 1521 1520 1522 1524 1528 1533 1533 1529 1525 1528 1531 1531 1527 1525 1525 1525 1525 1526 1526 1528 1529 1530 1531 1532 1534 1535 1536 1536 1537 1537 1538 1539 1539 1539 1539 1539 1540 1541 1541 1541 1541 1542
1524 1522 1518 1520 1523 1526 1528 1531 1530 1531 1528 1528 1531 1534 1529 1526 1525 1525 1525 1525 1526 1527 1527 1529 1530 1531 1533 1534 1535 1535 1536 1537 1537 1538 1538 1539 1538 1539 1539 1540 1540 1540 1540 1541
1521 1518 1518 1521 1523 1525 1531 1524 1525 1528 1535 1540 1536 1548 1534 1529 1526 1524 1524 1524 1525 1526 1526 1527 1529 1530 1531 1533 1534 1535 1535 1536 1536 1537 1537 1537 1538 1538 1538 1538 1539 1539 1539 1539
1522 1518 1519 1522 1521 1521 1524 1522 1525 1528 1534 1541 1540 1546 1540 1531 1529 1525 1524 1523 1524 1524 1525 1526 1528 1529 1530 1531 1532 1533 1534 1534 1535 1535 1536 1536 1536 1537 1537 1537 1538 1538 1538 1538
1519 1517 1517 1518 1517 1518 1521 1526 1530 1536 1541 1550 1543 1546 1544 1534 1529 1525 1522 1522 1522 1523 1524 1526 1527 1528 1529 1530 1531 1532 1532 1533 1533 1534 1534 1535 1535 1535 1535 1536 1536 1536 1536 1536
1524 1519 1516 1515 1519 1521 1523 1536 1550 1552 1558 1554 1542 1544 1541 1526 1523 1522 1521 1521 1521 1522 1523 1525 1526 1527 1528 1529 1529 1530 1531 1531 1532 1532 1533 1533 1533 1534 1534 1534 1534 1534 1534 1535
1532 1532 1519 1516 1518 1523 1527 1533 1551 1559 1562 1556 1544 1545 1533 1523 1520 1520 1520 1520 1521 1522 1523 1524 1525 1526 1527 1527 1528 1528 1529 1529 1530 1530 1531 1531 1532 1532 1532 1533 1533 1533 1533 1533
1532 1531 1518 1516 1515 1519 1528 1534 1535 1549 1552 1557 1550 1541 1529 1521 1520 1520 1519 1520 1520 1521 1522 1523 1524 1525 1525 1525 1526 1526 1527 1527 1528 1528 1529 1529 1529 1530 1530 1531 1531 1531 1532 1532
1523 1529 1521 1518 1516 1519 1522 1530 1541 1548 1557 1561 1551 1545 1539 1526 1523 1521 1520 1519 1520 1521 1521 1522 1522 1523 1523 1524 1524 1525 1525 1525 1526 1526 1527 1527 1528 1528 1528 1529 1529 1529 1530 1530
1520 1529 1527 1522 1523 1525 1527 1532 1539 1548 1550 1558 1560 1548 1525 1523 1520 1520 1518 1518 1518 1519 1520 1520 1521 1521 1522 1522 1522 1522 1523 1523 1524 1524 1525 1525 1526 1526 1526 1527 1528 1528 1528 1528
1521 1530 1535 1527 1521 1520 1522 1527 1535 1544 1548 1552 1556 1547 1520 1519 1518 1517 1517 1517 1518 1518 1519 1519 1519 1520 1520 1520 1520 1520 1521 1521 1521 1522 1522 1523 1524 1524 1524 1525 1525 1526 1526 1526
1521 1530 1539 1536 1532 1525 1524 1525 1529 1537 1546 1553 1554 1542 1520 1518 1517 1516 1516 1516 1516 1517 1518 1518 1518 1518 1518 1519 1519 1519 1519 1519 1519 1520 1520 1521 1521 1522 1522 1522 1523 1523 1524 1524
1517 1527 1534 1538 1533 1527 1526 1525 1528 1534 1544 1547 1543 1534 1523 1519 1518 1516 1516 1515 1515 1516 1516 1517 1517 1517 1517 1517 1517 1517 1517 1517 1517 1517 1518 1518 1518 1519 1520 1520 1520 1521 1521 1521
1517 1526 1526 1526 1523 1523 1524 1525 1526 1529 1531 1535 1531 1529 1521 1518 1517 1516 1515 1515 1515 1515 1515 1515 1515 1515 1515 1515 1515 1515 1515 1515 1515 1515 1515 1515 1516 1516 1517 1517 1518 1518 1519 1519
1519 1524 1525 1526 1522 1523 1525 1522 1523 1524 1524 1526 1525 1524 1516 1515 1515 1514 1514 1514 1513 1513 1513 1513 1513 1513 1513 1513 1513 1513 1513 1512 1512 1513 1513 1513 1513 1514 1514 1514 1515 1515 1516 1516
1522 1525 1530 1533 1526 1523 1527 1520 1519 1520 1519 1520 1522 1519 1514 1514 1513 1513 1512 1512 1512 1511 1511 1511 1511 1511 1511 1511 1511 1511 1511 1510 1510 1510 1511 1511 1511 1511 1511 1512 1512 1512 1513 1513
1521 1526 1532 1534 1530 1534 1523 1513 1513 1515 1515 1515 1514 1513 1512 1512 1511 1511 1511 1510 1510 1510 1509 1509 1509 1509 1509 1510 1510 1509 1509 1508 1508 1508 1508 1509 1509 1509 1509 1509 1509 1509 1510 1510
1516 1522 1532 1537 1536 1530 1519 1512 1512 1514 1515 1511 1512 1511 1510 1510 1510 1509 1509 1509 1509 1508 1508 1507 1507 1507 1507 1507 1507 1507 1507 1506 1506 1506 1506 1506 1506 1506 1506 1506 1506 1506 1507 1507
1517 1519 1529 1535 1534 1533 1518 1509 1508 1512 1516 1509 1509 1509 1509 1509 1513 1510 1507 1507 1506 1506 1506 1505 1505 1505 1505 1505 1505 1505 1504 1504 1504 1504 1504 1504 1504 1504 1504 1504 1504 1504 1504 1504
1522 1525 1529 1532 1532 1524 1511 1507 1508 1519 1516 1507 1506 1506 1507 1507 1508 1507 1505 1505 1505 1504 1504 1503 1503 1503 1502 1503 1502 1502 1501 1501 1502 1502 1502 1502 1502 1502 1502 1502 1501 1501 1501 1501
1519 1524 1528 1530 1531 1524 1506 1507 1510 1509 1505 1505 1504 1504 1505 1504 1504 1504 1503 1503 1502 1502 1502 1501 1501 1501 1500 1500 1500 1499 1499 1499 1500 1500 1500 1500 1500 1500 1500 1499 1498 1498 1498 1498
1514 1513 1515 1516 1515 1506 1504 1504 1504 1503 1503 1503 1503 1503 1503 1502 1502 1502 1501 1501 1500 1500 1500 1499 1499 1498 1498 1498 1498 1497 1497 1497 1497 1497 1497 1497 1497 1497 1497 1496 1495 1495 1495 1494
1509 1508 1510 1511 1505 1502 1501 1501 1502 1502 1501 1501 1501 1501 1501 1500 1500 1499 1499 1499 1498 1498 1497 1497 1497 1496 1496 1495 1495 1495 1495 1495 1495 1494 1494 1494 1494 1494 1493 1493 1493 1492 1491 1491
1504 1506 1507 1507 1502 1500 1499 1499 1499 1499 1499 1499 1499 1499 1499 1498 1497 1497 1496 1496 1496 1495 1495 1495 1494 1493 1493 1493 1492 1492 1492 1492 1492 1492 1491 1491 1491 1490 1490 1489 1489 1488 1488 1488
1499 1500 1502 1500 1496 1497 1495 1495 1497 1497 1496 1496 1496 1496 1496 1496 1495 1494 1494 1493 1493 1493 1492 1492 1492 1491 1490 1490 1490 1490 1490 1490 1489 1489 1488 1488 1487 1487 1486 1485 1485 1485 1485 1484